Flag for Brazil Weather past 2 weeks in Pirassununga, São Paulo, Brazil

Now
91 °F

Passing clouds.


Feels Like: 88 °F
Forecast: 60 / 91 °F
Wind: 6 mph from Northwest

Location: Pirassununga Airport

Current Time: Sep 18, 2014 at 3:55:00 PM

Latest Report: Sep 18, 2014 at 3:00 PM


Visibility: N/A

Pressure: 29.92 "Hg

Humidity: 24%

Dew point: 50 °F

Location of PirassunungaLocation

Historic Weather in Pirassununga — Graph

°F

Pirassununga temperature yesterday

Maximum temperature yesterday: 90 °F (at 3:00 PM)
Minimum temperature yesterday: 57 °F (at 6:00 AM)
Average temperature yesterday: 76 °F

Past Weeks' High & Low Weather Summary

 TemperatureHumidityPressure
High93 °F (Sep 15, 3:00 PM)100% (Sep 13, 7:00 AM)30.24 "Hg (Sep 13, 7:00 AM)
Low50 °F (Sep 6, 6:00 AM)15% (Sep 11, 3:00 PM)29.92 "Hg (Sep 15, 3:00 PM)
Average74 °F48%30.08 "Hg
* Reported Sep 3 2:00 PM — Sep 18 2:00 PM, Pirassununga, Weather by CustomWeather, © 2014

Note: Actual official high and low records may vary slightly from our data, if they occured in-between our weather recording intervals... More about our weather records

Advertising

Pirassununga weather history for previous 24 hours

 ConditionsComfort  
Time TempWeatherWind HumidityBarometerVisibility
2:00 PM
Sep 18
91 °FPassing clouds.2 mph30%29.95 "HgN/A
1:00 PM90 °FSunny.7 mph33%29.98 "Hg10 mi
12:00 PM86 °FSunny.7 mph38%30.01 "Hg10 mi
11:00 AM84 °FSunny.14 mph43%30.04 "Hg10 mi
10:00 AM79 °FSunny.14 mph54%30.07 "Hg10 mi
9:00 AM68 °FSunny.6 mph69%30.09 "Hg10 mi
8:00 AM63 °FFog.3 mph83%30.09 "Hg3 mi
7:00 AM57 °FFog.3 mph94%30.09 "Hg2 mi
6:00 AM54 °FFog.2 mph94%30.07 "Hg2 mi
11:00 PM
Sep 17
68 °FClear.13 mph73%30.07 "Hg10 mi
10:00 PM70 °FClear.13 mph69%30.07 "Hg10 mi
9:00 PM72 °FClear.9 mph61%30.04 "Hg10 mi
8:00 PM77 °FClear.12 mph44%30.04 "Hg10 mi
7:00 PM79 °FClear.7 mph39%30.01 "Hg10 mi
6:00 PM82 °FClear.9 mph32%29.98 "Hg10 mi
5:00 PM88 °FSunny.10 mph27%29.98 "Hg10 mi
4:00 PM90 °FSunny.13 mph24%29.98 "Hg10 mi
3:00 PM90 °FSunny.8 mph26%29.98 "Hg10 mi
Weather by CustomWeather, © 2014

See weather overviewHow to use our weather pages